Location: Ferchesar
(52.6477°N, 12.4298°E)
Time: 16:48:09
(UTC+01:00)

Vanguard 1 Rocket - Visible Passes

Search period start: 27 February 2021 00:00
Search period end: 09 March 2021 00:00
Orbit: 654 x 4222 km, 34.3° (Epoch: 26 February)

Date Brightness Start Highest point End Pass type
(mag) Time Alt. Az. Time Alt. Az. Time Alt. Az.
27 Feb 10.9 02:04:04 37° SSE 02:06:28 37° SSE 02:25:34 10° E visible
27 Feb 10.7 04:21:18 27° SW 04:35:28 46° S 04:52:19 10° ESE visible
28 Feb 11.1 00:56:24 30° SE 00:56:24 30° SE 01:12:04 10° E visible
28 Feb 10.8 03:13:38 37° SSW 03:21:51 45° S 03:40:40 10° ESE visible
28 Feb 10.7 05:30:52 14° WSW 05:50:36 42° SSW 06:05:43 10° SE visible
28 Feb 11.4 23:48:42 19° ESE 23:48:42 19° ESE 23:56:59 10° E visible
01 Mar 10.8 02:05:56 40° SSE 02:08:09 41° SSE 02:28:14 10° E visible
01 Mar 10.7 04:23:09 27° SW 04:37:23 46° S 04:54:49 10° ESE visible
02 Mar 11.0 00:58:11 33° SE 00:58:11 33° SE 01:14:52 10° E visible
02 Mar 10.7 03:15:25 39° SSW 03:23:41 46° S 03:43:11 10° ESE visible
02 Mar 10.8 05:32:39 14° WSW 05:52:27 41° SSW 06:08:00 10° SE visible
02 Mar 11.3 23:50:26 22° ESE 23:50:26 22° ESE 00:00:14 10° E visible
03 Mar 10.7 02:07:39 43° S 02:09:51 44° SSE 02:30:46 10° ESE visible
03 Mar 10.7 04:24:53 27° WSW 04:39:15 46° S 04:57:12 10° SE visible
03 Mar 11.7 22:42:39 11° E 22:42:39 11° E 22:43:25 10° E visible
04 Mar 10.9 00:59:52 37° SE 00:59:52 37° SE 01:17:28 10° E visible
04 Mar 10.7 03:17:06 39° SW 03:25:30 48° S 03:45:36 10° ESE visible
04 Mar 10.8 05:34:19 13° W 05:54:12 39° SSW 06:10:07 10° SE visible
04 Mar 11.2 23:52:05 25° ESE 23:52:05 25° ESE 00:03:05 10° E visible
05 Mar 10.7 02:09:18 45° S 02:11:34 46° SSE 02:33:11 10° ESE visible
05 Mar 10.8 04:26:32 26° WSW 04:41:03 45° SSW 04:59:27 10° SE visible
05 Mar 11.6 22:44:17 13° E 22:44:17 13° E 22:47:04 10° E visible
06 Mar 10.8 01:01:31 40° SE 01:01:31 40° SE 01:19:54 10° E visible
06 Mar 10.7 03:18:44 39° SW 03:27:17 48° S 03:47:53 10° ESE visible
06 Mar 10.9 05:35:57 12° W 05:55:49 36° SSW 06:12:00 10° SSE visible
06 Mar 11.2 23:53:43 28° ESE 23:53:43 28° ESE 00:05:39 10° E visible
07 Mar 10.6 02:10:56 47° S 02:13:18 47° S 02:35:29 10° ESE visible
07 Mar 10.8 04:28:10 25° WSW 04:42:46 43° SSW 05:01:31 10° SE visible
07 Mar 11.5 22:45:56 15° E 22:45:56 15° E 22:50:06 10° E visible
08 Mar 10.8 01:03:10 42° SE 01:03:10 42° SE 01:22:12 10° E visible
08 Mar 10.7 03:20:23 38° SW 03:29:04 47° S 03:50:03 10° SE visible
08 Mar 11.0 05:37:37 11° W 05:57:20 33° SW 06:13:37 10° SSE visible
